Location: Banios
(43.0451°N, 0.2335°E)
Time: 11:59:20
(UTC+00:00)

Envisat - Pass Details

Date: 17 December 2021
Orbit: 764 x 766 km, 98.2° (Epoch: 28 January)

Event Time Altitude Azimuth Distance (km) Brightness Sun altitude
Rises 05:47:54 0° 4° (N) 3,242 6.1 -17.0°
Reaches altitude 10° 05:50:22 10° 356° (N) 2,312 5.3 -16.5°
Maximum altitude 05:54:57 35° 292° (WNW) 1,217 3.5 -15.7°
Drops below altitude 10° 05:59:31 10° 227° (SW) 2,296 5.2 -14.9°
Sets 06:01:58 0° 219° (SW) 3,218 6.0 -14.5°
